カタログに戻る

STARLINK-32140

運用中通信VLEO
NORAD 61511·PAYLOAD·🇺🇸 United States

打ち上げ Oct 15, 2024 から Cape Canaveral Space Force Station

Loading…

次のパス (今後24時間)

TLE

最新Source: CelesTrak SupGP

元期: Sep 15, 2026, 03:31 UTC

1 61511C 24183C   26258.14701389  .00067896  00000+0  21825-2 0  2581
2 61511  53.1604 340.8033 0001207  77.7445 235.6660 15.31680447    18

AllMySatでSTARLINK-32140をリアルタイム追跡

Download on the App Store